Naples, FL (34101)

5:34 PM EDT on May 03, 2015 (GMT -0400)
KFLNAPLE31 | | Change Station
CLOSE
Current Station
Personal Weather Station
Location: Naples, FL
Elevation: 20 ft
Nearby Weather Stations

Elev 20 ft 26.16 °N, 81.78 °W | Updated 9 minutes ago

Scattered Clouds
Scattered Clouds
88.0 °F
Feels Like 88 °F
N
15.0
Wind Variable Wind from ENE
Gusts 18.0 mph

Today
High -- | Low -- °F
--% Chance of Precip.
Yesterday
High -- | Low -- °F
Precip. -- in
6:48 AM 7:59 PM
Full, 100% visible
Pressure 30.04 in
Visibility 10.0 miles
Clouds Scattered Clouds 7000 ft
Heat Index 88 °F
Dew Point 62 °F
Humidity 42%
Rainfall 0.00 in
Snow Depth Not available.
UV 5 out of 12
Pollen 5.40 out of 12
Air Quality Not available.
Flu Activity Local Activity
METAR KAPF 032053Z 09010G17KT 10SM SCT070 29/11 A3004 RMK AO2 SLP173 T02890111 56014

More Conditions Fewer Conditions

Pressure 30.04 in
Visibility 10.0 miles
Clouds Scattered Clouds 7000 ft
Heat Index 88 °F
Dew Point 62 °F
Humidity 42%
Rainfall 0.00 in
Snow Depth Not available.
UV 5 out of 12
Pollen 5.40 out of 12
Air Quality Not available.
Flu Activity Local Activity
METAR KAPF 032053Z 09010G17KT 10SM SCT070 29/11 A3004 RMK AO2 SLP173 T02890111 56014

More Conditions Fewer Conditions

Nepal has a long way to go to dig out and rebuild from a devastating earthquake. We have teamed up with several charities and organizations to make contributing to the relief effort as easy as possible.
How you can help: Portlight Strategies | Red Cross

10-Day Weather Forecast

Almanac

Astronomy

May. 03, 2015 Rise Set
Actual Time
Civil Twilight
Nautical Twilight
Astronomical Twilight
Moon
Length of Visible Light
Length of Day
Tomorrow will be .
, % of the Moon is Illuminated

Today's Extremes

State Highs State Lows

Community

WunderPhotos

Upload Photos

1,818,377 photos uploaded!

WunderBlogs® & News

Nearby

Air Quality

  Air Quality AQ Index Pollutant
Not available.

Snow Depth

Station Depth Elevation

Earthquake Activity

City Distance Mag. Time & Date
Minimum magnitude displayed is 2.5.

Coastal Water Temperatures

Place Temperature

Stations

Nearby Weather Stations

Station Location Temp. Windchill Dew Point Humidity Wind Precip. Elev Updated Type